Regional Weather Roundup
Issued by NWS Cleveland, OH

Home | Current Version | Previous Version | Graphics & Text | Print | Product List | Glossary On
Versions: 1 2 3 4 5 6 7 8 9 10 11 12 13 14 15 16 17 18 19 20 21 22 23 24 25 26 27 28 29 30 31 32 33 34 35 36 37 38 39 40 41 42 43 44 45 46 47 48 49 50
000
ASUS41 KCLE 250310
RWRCLE
OHIO REGIONAL WEATHER ROUNDUP
NATIONAL WEATHER SERVICE WILMINGTON, OH
1100 PM EDT SUN MAY 24 2015

NOTE: "FAIR" INDICATES FEW OR NO CLOUDS BELOW 12,000 FEET WITH NO
SIGNIFICANT WEATHER AND/OR OBSTRUCTIONS TO VISIBILITY.

OHZ001>008-015>018-024>027-034-035-043-044-250400-
   NORTHWEST OHIO

CITY           SKY/WX    TMP DP  RH WIND       PRES   REMARKS
DEFIANCE       CLEAR     73  52  47 S6        30.07S
FINDLAY        CLEAR     70  51  51 SE7       30.10S
TOLEDO EXPRESS PTCLDY    69  51  52 S5        30.08F
TOLEDO EXEC    PTCLDY    68  50  52 SE9       30.09S
LIMA           CLEAR     71  50  47 S8        30.11S
$$

OHZ009>014-019>023-028>033-038-089-250400-
   NORTHEAST OHIO

CITY           SKY/WX    TMP DP  RH WIND       PRES   REMARKS
CLE-HOPKINS    MOCLDY    69  51  52 S8        30.16S
CLE-LAKEFRONT  MOCLDY    74  46  36 S7        30.13S
CUY CO. ARPT   PTCLDY    73  46  38 S12       30.17R
LORAIN-ELYRIA  MOCLDY    70  52  52 S8        30.14S
ASHTABULA      CLOUDY    66  50  56 SE6       30.18S
AKRON-CANTON   PTCLDY    70  49  47 SE7       30.18S
WOOSTER        PTCLDY    64  51  62 SE6       30.18R
MANSFIELD      PTCLDY    68  54  60 S8        30.17R
YOUNGSTOWN     MOCLDY    64  47  53 SE7       30.19S
$$

OHZ042-051>053-060>062-070>072-077>081-250400-
  SOUTHWEST OHIO

CITY           SKY/WX    TMP DP  RH WIND       PRES   REMARKS
CINC-COVINGTON PTCLDY    71  53  52 S10       30.13R
CINC-LUNKEN    CLEAR     64  55  72 CALM      30.13R
HAMILTON       CLEAR     68  52  56 CALM      30.12S
DAYTON         CLEAR     74  49  41 S9        30.13S
WRIGHT-PAT AFB CLEAR     71  51  48 SE6       30.13S
DAYTON GENERAL CLEAR     70  50  49 SE7       30.12F
WILMINGTON     CLEAR     69  51  52 SE3       30.15S
$$

OHZ036-037-039>041-045>050-054>059-063>069-073>076-082>088-250400-
  CENTRAL AND SOUTHEAST OHIO

CITY           SKY/WX    TMP DP  RH WIND       PRES   REMARKS
COLUMBUS       PTCLDY    73  53  49 SE5       30.15S
OSU AIRPORT    PTCLDY    74  52  46 S8        30.15S
BOLTON FIELD   NOT AVBL
RICKENBACK AFB PTCLDY    69  53  58 SE6       30.15S
NEWARK         CLEAR     62  56  80 CALM      30.17R
MARION         PTCLDY    71  51  49 S9        30.14S
LANCASTER      PTCLDY    62  55  77 SE3       30.17S
ZANESVILLE     CLEAR     66  53  63 CALM      30.18S
NEW PHILLY     CLEAR     64  55  72 SE5       30.19S
$$



USA.gov is the U.S. government's official web portal to all federal, state and local government web resources and services.